Weather Roundup
Issued by NWS

Home | Current Version | Previous Version | Graphics & Text | Print | Product List | Glossary Off
Versions: 1 2 3 4 5 6 7 8 9 10 11 12 13 14 15 16 17 18 19 20 21 22 23 24 25 26 27 28 29 30 31 32 33 34 35 36 37 38 39 40 41 42 43 44 45 46 47 48 49 50

000
NZUS93 KARX 220559
HRRWXR

CURRENT HOURLY OBSERVATIONS ACROSS
MUCH OF THE UPPER MISSISSIPPI VALLEY
NATIONAL WEATHER SERVICE LA CROSSE WI
100 AM CDT MON SEP 22 2014


...SOUTHEAST MINNESOTA...


CITY           SKY/WX    TMP DP  RH WIND       PRES   REMARKS
ROCHESTER      CLEAR     48  45  89 W8        30.24R
ROCHESTER/MAYO FAIR      51  45  80 W5        30.24R
WINONA         CLEAR     48  46  93 CALM      30.23R
AUSTIN         CLEAR     46  46 100 CALM      30.24S
ALBERT LEA     CLEAR     52  48  87 CALM      30.24S
DODGE CENTER   CLEAR     48  46  93 CALM      30.23S
PRESTON        CLEAR     47  47 100 NW3       30.24R
OWATONNA       CLEAR     46  45  93 CALM      30.24S
FARIBAULT      CLEAR     52  46  82 CALM      30.24S
$$

...ELSEWHERE IN MINNESOTA...


CITY           SKY/WX    TMP DP  RH WIND       PRES   REMARKS
MINNEAPOLIS    CLEAR     50  48  93 NW6       30.23S
INTNL FALLS    CLEAR     47  46  97 SW5       30.14F
DULUTH         MOCLDY    51  46  83 NW8       30.18S
RED WING       CLEAR     46  45  93 CALM      30.21F
REDWOOD FALLS  CLEAR     49  46  90 SW3       30.25S
MANKATO        CLEAR     52  45  76 NW3       30.25R
WORTHINGTON    CLEAR     45  43  93 CALM      30.28S
FAIRMONT       CLEAR     48  43  81 NW3       30.26S
$$

...SOUTHWEST WISCONSIN...


CITY           SKY/WX    TMP DP  RH WIND       PRES   REMARKS
LA CROSSE      CLEAR     49  46  90 SE5       30.21S
PRAIRIE DU CHI CLEAR     47  46  93 CALM      30.21S
BOSCOBEL       MOCLDY    46  44  93 CALM      30.22S FOG
LONE ROCK      NOT AVBL
PLATTEVILLE    CLEAR     48  45  90 N3        30.21R
FORT MC COY    CLEAR     39  39  98 CALM      30.22S
CAMP DOUGLAS   CLEAR     37  37 100 CALM      30.20S
VIROQUA        FAIR      44  43  96 CALM      30.21S
WIS DELLS      CLEAR     42  40  91 CALM      30.21R
$$

...ELSEWHERE IN WISCONSIN...


CITY           SKY/WX    TMP DP  RH WIND       PRES   REMARKS
MILWAUKEE      CLEAR     48  41  76 NW7       30.18R
MADISON        CLEAR     46  41  82 NW3       30.20R
GREEN BAY      CLEAR     41  39  93 CALM      30.17S
EAU CLAIRE     NOT AVBL
BLACK RVR FLS  FOG       37  37 100 CALM      30.21S VSB<1/4
MEDFORD        CLEAR     37  37  99 CALM      30.19S FOG
WAUSAU         CLEAR     41  39  93 CALM      30.17F
WIS RAPIDS     CLEAR     41  39  93 CALM      30.20F
MARSHFIELD     CLEAR     41  40  96 W5        30.19S
RICE LAKE      CLEAR     44  43  96 CALM      30.21F
$$

...NORTHEAST IOWA...


CITY           SKY/WX    TMP DP  RH WIND       PRES   REMARKS
WATERLOO       CLEAR     47  45  93 N5        30.22R
DUBUQUE        CLEAR     49  45  86 N3        30.21R
DECORAH        CLEAR     50  46  87 CALM      30.21S
MASON CITY     CLEAR     48  46  93 NW5       30.26R
CHARLES CITY   CLEAR     48  46  93 N5        30.24S
OELWEIN        CLEAR     48  46  93 N7        30.22F
$$

...ELSEWHERE IN IOWA...


CITY           SKY/WX    TMP DP  RH WIND       PRES   REMARKS
DES MOINES     CLEAR     56  48  74 N6        30.25R
IOWA CITY        N/A     47  46  97 W5        30.22S
FORT DODGE     CLEAR     46  45  93 CALM      30.27R
MARSHALLTOWN   CLEAR     47  45  93 W5        30.23R
CEDAR RAPIDS   CLEAR     48  46  93 N5        30.20S
$$

...NORTHERN ILLINOIS...


CITY           SKY/WX    TMP DP  RH WIND       PRES   REMARKS
CHICAGO-OHARE  PTCLDY    51  43  74 N8        30.14S
DUPAGE         CLEAR     45  42  89 N5        30.15S
CHICAGO-MIDWAY PTCLDY    53  44  71 NW7       30.14R
MOLINE         CLEAR     54  46  74 N3        30.19R
ROCKFORD       CLEAR     48  43  82 N7        30.20R
STERLING       CLEAR     52  45  76 NE5       30.18R
PEORIA         CLEAR     54  49  83 N3        30.17R
$$

NOTE: "FAIR" INDICATES FEW OR NO CLOUDS BELOW 12,000 FEET WITH NO
SIGNIFICANT WEATHER AND/OR OBSTRUCTIONS TO VISIBILITY. WIND
SPEEDS ARE IN MILES-PER-HOUR.



USA.gov is the U.S. government's official web portal to all federal, state and local government web resources and services.